Simultaneous Nadir Overpasses (SNOs) Predictions

Prediction of SNOs between FY3D and TERRA Satellite Orbit:

Table of predicted SNOs for the next 14.0 days since TLE Epoch: 1/6/2024
Index Date (FY3D) Time (FY3D) Lat,Lon (FY3D) SZA (FY3D ) Date (TERRA) Time (TERRA) Lat,Lon (TERRA) SZA (TERRA ) Distance(km) Time Diff (sec)
1 01/07/2024 04:19:01 74.74, 115.32 97.10 01/07/2024 04:19:15 74.72, 115.32 97.08 2.00 14
2 01/07/2024 05:09:44 -74.66, -77.15 82.99 01/07/2024 05:08:38 -74.68, -77.13 82.97 1.96 66
3 01/09/2024 15:32:10 74.80, -53.09 96.84 01/09/2024 15:33:11 74.81, -52.98 96.84 3.62 61
4 01/09/2024 16:22:53 -74.72, 114.46 83.26 01/09/2024 16:22:35 -74.72, 114.46 83.26 0.81 18
5 01/12/2024 03:36:02 -74.78, -53.95 83.57 01/12/2024 03:36:31 -74.80, -53.87 83.55 3.34 29
6 01/12/2024 04:26:47 74.72, 113.52 96.37 01/12/2024 04:25:54 74.69, 113.52 96.34 3.08 53
7 01/14/2024 14:49:14 -74.98, 137.21 83.77 01/14/2024 14:50:26 -74.90, 137.87 83.86 21.07 72
8 01/14/2024 15:39:55 74.74, -54.78 95.98 01/14/2024 15:39:50 74.74, -54.88 95.98 2.78 5
9 01/14/2024 16:30:29 -74.22, 113.96 84.57 01/14/2024 16:29:21 -74.30, 111.74 84.46 67.67 68
10 01/17/2024 02:53:04 74.82, 136.76 95.61 01/17/2024 02:53:45 74.82, 136.80 95.60 1.38 41
11 01/17/2024 03:43:48 -74.77, -55.78 84.46 01/17/2024 03:43:09 -74.75, -55.71 84.48 2.90 39
12 01/19/2024 14:06:24 75.47, -33.44 95.79 01/19/2024 14:07:29 75.38, -30.24 95.67 89.94 65
13 01/19/2024 14:56:55 -74.80, 135.89 84.92 01/19/2024 14:57:03 -74.81, 135.93 84.91 1.86 8



Historial Predications of SNOs between FY3D and TERRA
